Portada
METAR-TAF:

METAR-TAF

Aeroports :

Greenville, Carolina del Sud, Estats Units d'Amèrica

latitud: 34-45-30N, longitud: 082-22-35W, altitud: 291 m

Observació

L'informe es va fer fa 1 hora i 16 minuts, a les 23:47 UTC
Vent 5 kt del Oest/Nord-Oest
Temperatura 21°C
Humitat 64%
Pressió 1018 hPa
Visibilitat: 16.1 km
Cel ennuvolat a una alçada de 11000 ft

METAR: KGYH 172347Z 29005KT 10SM BKN110 21/14 A3007

Hora: 21:03 (01:03 UTC)


TAF: manca

Observacions i pronòstics meteorològics de més de 4000 aeroports (METAR i TAF).

Les estacions disponibles són els punts grocs i vermells al mapa.

Posi el ratolí al punt desitjat per veure el nom de l'estació.

Feu clic per veure les observacions i els pronòstics meteorològics.

Per canviar el mapa: feu clic els botons verds amb una creu de color negre per apropar; al botó verd amb un guió per allunyar la imatge; o en les fletxes verdes per a mapes adjacents.


METAR-TAF: